AEE245 LGRP-EETN

Flight info

Callsign AEE245
Flight time N/A
Altitude 34000
Route VANES B34 GILOS UM601 ADESO UN133 KOROS/N0453F310 UT162 LMO/N0452F340 UN128 PEREN UN133 ATFIR DCT LOMOS DCT PADGU/N0455F360 DCT DEGET DCT NIPUR DCT DEMOP/N0458F350 DCT NEPOX DCT SUWGI DCT BOKSU DCT INBOV DCT GUNTA DCT KEMET
Aircraft A320/M-SDE3FGHIRWY/LB1

Departure

Time N/A
Airport Rhodes International Airport "Diagoras" (LGRP)

Arrival

Time 2026-04-29 18:03
Airport Lennart Meri Tallinn Airport (EETN)
Time Latitude Longitude Altitude Speed Heading
2026-04-29 17:46 58.64010 24.55595 21185 ft 321 kts 11°
2026-04-29 17:47 58.66204 24.56422 20798 ft 320 kts 11°
2026-04-29 17:47 58.68392 24.57249 20406 ft 319 kts 11°
2026-04-29 17:47 58.70567 24.58072 19959 ft 318 kts 11°
2026-04-29 17:47 58.72651 24.59284 19485 ft 317 kts 20°
2026-04-29 17:48 58.74630 24.61200 19008 ft 318 kts 26°
2026-04-29 17:48 58.76564 24.63246 18501 ft 317 kts 26°
2026-04-29 17:48 58.78450 24.65238 17992 ft 316 kts 26°
2026-04-29 17:48 58.80371 24.67266 17480 ft 314 kts 26°
2026-04-29 17:49 58.82285 24.69291 16984 ft 313 kts 26°
2026-04-29 17:49 58.84192 24.71311 16456 ft 311 kts 26°
2026-04-29 17:49 58.86080 24.73317 15944 ft 309 kts 26°
2026-04-29 17:49 58.87942 24.75296 15429 ft 308 kts 26°
2026-04-29 17:50 58.89820 24.77294 14907 ft 308 kts 26°
2026-04-29 17:50 58.91694 24.79294 14388 ft 308 kts 26°
2026-04-29 17:50 58.93576 24.81306 13835 ft 308 kts 26°
2026-04-29 17:50 58.95450 24.83313 13283 ft 307 kts 26°
2026-04-29 17:51 58.97321 24.85317 12768 ft 306 kts 26°
2026-04-29 17:51 58.99159 24.87287 12254 ft 305 kts 26°
2026-04-29 17:51 59.01018 24.89281 11736 ft 304 kts 26°
2026-04-29 17:51 59.02872 24.91269 11222 ft 304 kts 26°
2026-04-29 17:52 59.04712 24.93243 10917 ft 297 kts 26°
2026-04-29 17:52 59.05898 24.94520 10832 ft 289 kts 26°
2026-04-29 17:52 59.08193 24.96996 10658 ft 275 kts 26°
2026-04-29 17:52 59.09820 24.98751 10479 ft 268 kts 26°
2026-04-29 17:53 59.11457 25.00518 10237 ft 263 kts 26°
2026-04-29 17:53 59.13053 25.02238 10116 ft 262 kts 26°
2026-04-29 17:53 59.14630 25.03942 10010 ft 262 kts 26°
2026-04-29 17:53 59.16238 25.05686 9596 ft 267 kts 26°
2026-04-29 17:54 59.17854 25.07440 9281 ft 264 kts 26°
2026-04-29 17:54 59.19445 25.09169 8756 ft 261 kts 26°
2026-04-29 17:54 59.21033 25.10893 8157 ft 261 kts 26°
2026-04-29 17:54 59.22618 25.12617 7831 ft 259 kts 26°
2026-04-29 17:55 59.24186 25.14324 7245 ft 265 kts 26°
2026-04-29 17:55 59.25807 25.16091 6722 ft 268 kts 27°
2026-04-29 17:55 59.27450 25.17889 6212 ft 272 kts 27°
2026-04-29 17:55 59.29056 25.19648 5856 ft 269 kts 27°
2026-04-29 17:56 59.30658 25.21405 5792 ft 257 kts 26°
2026-04-29 17:56 59.32204 25.22973 5729 ft 243 kts 19°
2026-04-29 17:56 59.33802 25.23755 5485 ft 235 kts
2026-04-29 17:56 59.35435 25.23845 4821 ft 240 kts 359°
2026-04-29 17:57 59.37123 25.23873 4134 ft 245 kts 359°
2026-04-29 17:57 59.38822 25.23775 3653 ft 240 kts 347°
2026-04-29 17:57 59.40246 25.22368 3469 ft 223 kts 316°
2026-04-29 17:57 59.40851 25.20800 3383 ft 213 kts 298°
2026-04-29 17:58 59.41174 25.17148 3225 ft 196 kts 274°
2026-04-29 17:58 59.41188 25.14622 3047 ft 180 kts 275°
2026-04-29 17:58 59.41201 25.12243 2814 ft 169 kts 275°
2026-04-29 17:58 59.41213 25.10009 2588 ft 157 kts 275°
2026-04-29 17:59 59.41223 25.07962 2391 ft 141 kts 276°
2026-04-29 17:59 59.41232 25.06119 2196 ft 130 kts 276°
2026-04-29 17:59 59.41242 25.04367 2006 ft 127 kts 276°
2026-04-29 17:59 59.41251 25.02640 1833 ft 126 kts 276°
2026-04-29 18:00 59.41259 25.00927 1653 ft 126 kts 275°
2026-04-29 18:00 59.41267 24.99230 1477 ft 126 kts 275°
2026-04-29 18:00 59.41274 24.97520 1303 ft 125 kts 274°
2026-04-29 18:00 59.41281 24.95810 1117 ft 125 kts 274°
2026-04-29 18:01 59.41288 24.94103 939 ft 125 kts 272°
2026-04-29 18:01 59.41295 24.92392 759 ft 125 kts 270°
2026-04-29 18:01 59.41301 24.90688 595 ft 124 kts 270°
2026-04-29 18:01 59.41303 24.89002 432 ft 123 kts 269°
2026-04-29 18:02 59.41310 24.87313 277 ft 124 kts 270°
2026-04-29 18:02 59.41318 24.85633 172 ft 116 kts 270°
2026-04-29 18:02 59.41324 24.84360 160 ft 75 kts 270°
2026-04-29 18:02 59.41326 24.83424 164 ft 59 kts 270°
2026-04-29 18:03 59.41343 24.82777 161 ft 31 kts 285°
2026-04-29 18:03 59.41435 24.82422 161 ft 30 kts 299°
2026-04-29 18:03 59.41502 24.82057 162 ft 26 kts 274°
2026-04-29 18:03 59.41507 24.81728 162 ft 16 kts 271°
2026-04-29 18:04 59.41506 24.81490 162 ft 19 kts 269°
2026-04-29 18:04 59.41504 24.81217 162 ft 21 kts 269°
2026-04-29 18:04 59.41504 24.80909 162 ft 24 kts 270°
2026-04-29 18:04 59.41508 24.80639 162 ft 19 kts 278°
2026-04-29 18:05 59.41596 24.80521 162 ft 17 kts 356°
2026-04-29 18:05 59.41708 24.80481 162 ft 16 kts 332°
2026-04-29 18:05 59.41746 24.80333 162 ft 14 kts 273°
2026-04-29 18:05 59.41725 24.80199 162 ft 10 kts 207°
2026-04-29 18:06 59.41705 24.80193 162 ft 2 kts 181°
2026-04-29 18:06 59.41692 24.80193 162 ft 1 kts 182°
2026-04-29 18:06 59.41691 24.80193 162 ft 0 kts 182°